Location: Lecco
(45.8566°N, 9.3977°E)
Time: 22:15:05
(UTC+02:00)

Vanguard 1 Rocket - Pass Details

Date: 20 August 2020
Orbit: 655 x 4221 km, 34.3° (Epoch: 30 September)

Event Time Altitude Azimuth Distance (km) Brightness Sun altitude
Exits shadow 05:50:07 - 238° (WSW) 5,710 10.8 -7.1°
Reaches altitude 10° 05:51:32 10° 237° (WSW) 5,303 10.6 -6.8°
Maximum altitude 06:03:32 38° 176° (S) 2,301 9.3 -4.9°
Drops below altitude 10° 06:10:17 10° 111° (ESE) 2,987 10.8 -3.9°
Sets 06:12:35 0° 102° (ESE) 3,674 11.6 -3.5°
